Powrót do katalogu

STARLINK-37824

AktywnyŁącznośćVLEO
NORAD 69956·PAYLOAD·🇺🇸 United States

Wystrzelony Jul 9, 2026 z Cape Canaveral Space Force Station

Loading…

Następne Przeloty (najbliższe 24 godziny)

TLE

ŚwieżeSource: CelesTrak SupGP

Epoka: Sep 14, 2026, 23:04 UTC

1 69956C 26157P   26257.96159722 -.00005712  00000+0 -16875-3 0  2572
2 69956  53.1597 359.3341 0001275  73.9586  28.3415 15.34394385    17

Śledź STARLINK-37824 w czasie rzeczywistym z AllMySat

Download on the App Store